Tracking 22287 objects as of 27-Jan-2021
HD Live streaming from Space Station
objects crossing your sky now

SL-19 DEB

Track SL-19 DEB now!
10-day predictions


NORAD ID: 36038
Int'l Code: 2009-059C
Perigee: 706.7 km
Apogee: 721.0 km
Inclination: 98.2 °
Period: 98.9 minutes
Semi major axis: 7084 km
RCS: 0.8568 m2 (medium)
Launch date: November 2, 2009
Source: Commonwealth of Independent States (former USSR) (CIS)
Launch site: PLESETSK MISSILE AND SPACE COMPLEX (PKMTR)

Note: This is SATELLITE DEBRIS
aabbcc
Your satellite tracking list
Your tracking list is empty




NASA's NSSDC Master Catalog

Two Line Element Set (TLE):
1 36038U 09059C   21027.17495889  .00000115  00000-0  36495-4 0  9994
2 36038  98.1689 221.1941 0010077 194.8181 287.3021 14.55813737596636
Source of the keplerian elements: AFSPC